Wind_Speed
28 30 31 30 31 31 32 32 33 33 33 33 33 33 32 32 33 33 34 34 35 35 35 36 36 36 37 38 39 39 40 40 40 40 39 40 40 40 41 41 41 42 42 42
27 29 29 30 31 31 31 32 32 32 33 34 33 33 32 33 33 33 34 34 35 35 36 36 37 37 37 38 39 39 40 40 40 40 40 40 40 41 41 42 42 43 43 43
26 27 28 30 31 31 31 31 32 32 33 33 34 33 32 33 34 34 34 35 35 36 37 37 37 37 38 39 39 40 40 40 41 41 41 41 40 42 43 43 43 44 45 45
27 27 28 30 31 31 32 31 32 32 33 33 33 35 32 32 33 34 34 35 36 37 38 38 38 38 38 39 40 40 41 41 41 42 42 42 42 42 43 43 44 45 46 46
28 27 28 29 30 31 31 31 31 32 34 34 34 36 34 32 33 33 34 34 35 36 37 38 38 38 38 39 40 41 42 43 43 43 43 43 44 43 43 44 45 46 46 47
27 28 28 29 29 30 31 31 31 32 33 35 34 34 35 33 33 33 34 34 35 36 37 38 39 39 39 39 40 42 42 43 44 44 44 44 44 44 45 46 47 47 47 47
27 28 28 29 29 30 30 31 31 32 33 34 33 34 34 33 33 33 33 34 35 36 36 37 38 39 40 40 42 43 43 43 44 46 46 45 45 46 46 47 48 48 49 48
27 28 28 28 28 29 30 30 31 32 33 33 33 33 33 33 33 33 33 33 34 34 35 36 37 39 40 41 42 43 44 44 45 46 47 47 48 48 47 48 49 50 49 50
28 28 28 28 27 28 29 30 30 32 33 33 33 34 33 34 34 33 33 33 33 34 36 36 37 39 40 41 41 42 44 45 46 46 47 48 49 49 48 48 48 50 51 51
28 28 28 27 28 28 29 29 30 30 32 34 34 33 32 33 34 34 34 34 34 34 35 36 37 38 39 41 41 42 43 45 46 46 46 47 48 49 49 48 49 49 51 52
28 29 28 28 28 28 28 29 30 31 32 33 34 33 31 31 32 33 33 34 35 35 35 36 37 38 39 40 40 41 42 43 44 44 45 45 46 46 47 48 48 49 50 52
28 29 29 29 29 28 29 29 30 31 32 32 33 32 31 31 32 32 33 35 35 35 35 35 36 37 38 39 39 40 40 41 43 43 44 44 45 45 45 46 47 48 49 51
27 28 29 29 29 29 29 29 29 30 31 32 33 32 32 32 33 33 34 35 35 35 35 35 36 36 37 37 38 38 38 39 41 42 43 44 44 45 45 45 46 47 48 49
28 28 28 29 30 30 30 29 29 31 31 32 32 32 31 32 34 34 35 35 34 34 34 34 34 34 35 36 36 36 37 38 39 41 42 43 44 45 45 45 46 47 48 48
29 29 29 29 30 31 30 31 32 32 32 33 32 33 32 33 34 35 35 35 35 34 34 34 33 33 34 35 35 35 36 37 38 39 41 42 44 45 45 46 47 47 48 48
30 30 30 30 31 32 31 31 33 33 34 34 34 33 34 34 35 35 35 35 35 35 35 34 34 34 34 35 35 36 37 37 38 39 40 41 42 43 44 45 46 47 48 49
30 31 32 31 32 33 32 31 32 34 34 34 35 34 35 36 36 36 37 36 36 36 36 36 36 36 36 37 37 37 38 39 39 40 40 41 42 43 44 45 45 46 47 48
31 31 32 33 33 34 32 32 33 34 35 35 35 36 37 37 37 37 38 38 38 38 38 37 37 37 37 37 38 38 38 39 39 40 41 42 42 43 44 44 45 46 46 47
30 31 32 33 34 34 33 33 34 35 35 36 36 37 37 37 37 37 38 38 38 39 38 38 38 39 38 38 38 39 38 39 40 40 42 43 43 43 43 44 44 45 46 47
29 30 31 32 33 34 33 33 34 35 36 35 36 36 37 36 37 37 37 37 37 37 38 38 38 38 38 38 39 39 39 39 40 40 41 42 43 43 44 44 44 45 46 46
29 30 31 32 33 34 33 33 33 34 35 35 36 36 37 37 37 37 36 36 36 36 36 37 37 37 37 37 38 39 40 40 41 41 41 42 43 43 43 44 44 45 45 46
30 31 32 33 34 33 33 33 33 34 34 34 35 36 37 37 37 37 37 37 37 37 36 36 36 36 37 37 38 38 39 40 41 41 41 42 42 43 43 43 44 44 45 45
31 32 33 33 33 34 34 34 35 35 34 34 35 35 36 36 37 37 37 37 37 37 36 36 36 36 36 37 37 38 39 39 40 40 40 40 41 42 42 42 43 44 44 45
32 32 33 33 33 33 34 35 36 35 35 35 35 35 35 35 36 36 37 37 37 37 37 37 37 37 37 37 38 39 39 39 39 39 39 39 40 40 41 41 42 42 43 43
32 33 33 33 33 33 34 35 35 36 35 35 35 35 35 35 35 36 36 37 37 37 37 37 37 37 38 38 38 39 39 39 39 39 39 39 40 40 40 40 40 41 41 41
31 31 32 33 33 33 34 35 35 35 35 34 34 34 35 35 35 36 36 36 36 36 36 36 36 37 37 37 37 37 37 38 38 38 38 38 38 38 38 39 39 39 39 40
Wind_Direction
260 259 258 260 261 263 264 266 267 267 266 267 267 267 266 264 264 264 263 261 259 259 259 259 258 258 256 254 253 252 252 251 252 252 253 254 253 252 251 250 250 250 250 249
262 261 262 261 261 263 266 267 268 268 268 268 268 267 267 266 266 265 264 263 262 260 259 259 259 258 257 256 255 254 253 252 252 253 254 254 254 253 252 251 250 249 249 249
265 265 264 264 263 264 266 268 269 269 270 270 270 268 267 267 267 266 265 264 264 262 261 260 260 259 258 257 255 254 254 254 253 253 254 254 254 254 253 252 251 250 249 250
266 266 266 266 266 267 267 269 269 270 270 271 272 273 269 269 269 268 267 266 265 264 263 261 260 259 259 258 257 255 255 254 254 253 254 254 254 254 253 253 252 251 252 251
269 268 268 268 269 270 270 270 270 271 271 271 271 272 271 270 271 270 269 267 266 266 264 262 260 259 259 259 258 256 256 255 255 255 255 256 256 256 254 253 254 254 253 253
272 270 270 270 270 270 271 271 273 273 273 272 271 273 273 271 271 272 271 270 268 267 266 265 261 259 259 258 258 257 257 256 256 256 256 256 258 257 256 255 255 255 254 254
272 272 271 271 271 270 271 271 273 275 275 275 275 275 275 275 274 275 274 273 271 270 268 266 263 260 259 259 258 258 258 257 257 256 256 257 257 257 257 256 255 255 254 253
274 274 273 272 271 272 271 271 272 276 278 278 277 275 275 276 276 276 276 274 274 272 270 268 266 264 262 262 260 259 258 258 258 257 257 258 257 257 258 257 256 255 254 254
276 275 274 273 272 273 272 271 272 275 278 279 280 279 277 278 278 278 278 277 275 274 272 270 269 267 265 264 263 261 259 258 258 258 258 258 257 258 259 258 257 255 254 254
277 276 275 273 272 272 272 272 273 275 278 280 282 283 283 281 281 280 279 279 278 277 275 272 271 269 267 266 265 263 261 260 258 258 258 258 257 257 258 259 259 257 255 255
278 278 276 274 273 274 273 272 273 275 277 280 282 284 285 285 284 283 282 281 280 280 279 274 271 269 268 266 266 264 262 260 258 257 257 258 258 257 257 258 259 259 258 257
279 279 278 276 274 274 274 273 273 276 277 279 281 283 284 284 284 284 283 283 283 281 280 276 273 271 269 268 266 265 263 262 260 258 258 258 259 259 259 259 259 259 259 259
278 279 279 277 276 275 275 274 273 274 277 278 280 282 284 284 284 285 285 284 284 282 280 277 274 272 270 269 268 267 265 263 261 260 260 260 260 260 260 260 261 260 260 260
277 278 278 278 278 278 275 273 272 273 274 278 280 281 282 284 285 285 285 285 284 283 280 278 276 274 272 270 269 268 268 266 263 262 261 261 261 261 261 261 261 261 261 261
279 279 278 277 277 276 275 273 272 272 273 276 279 281 282 284 285 285 285 285 284 283 282 279 277 275 273 271 270 269 268 267 266 264 263 263 262 261 261 262 262 262 263 263
279 280 279 278 278 277 276 274 273 273 275 276 277 279 280 282 284 285 285 285 284 282 281 279 277 276 274 272 271 270 270 269 267 265 264 263 263 263 262 262 262 263 264 264
280 281 280 279 279 278 277 277 276 276 277 278 278 279 280 281 282 283 284 285 284 282 281 279 278 277 275 273 272 271 270 270 269 266 265 263 263 264 263 263 263 263 264 264
282 282 282 281 280 279 280 279 277 277 277 279 280 280 280 281 282 282 283 283 282 281 279 279 278 278 276 274 272 271 271 271 270 268 265 264 264 264 264 264 263 263 263 264
281 283 284 284 282 281 282 282 280 279 278 279 280 280 280 281 282 282 282 282 281 280 279 279 278 277 276 275 273 272 271 271 271 270 267 265 265 266 266 266 266 266 266 266
283 283 283 284 283 283 285 284 283 281 279 278 280 281 280 280 281 281 281 282 281 280 279 278 278 278 277 275 273 272 272 272 272 271 269 267 266 266 266 266 266 267 267 267
283 282 283 284 284 284 285 285 284 283 283 281 280 280 279 279 281 282 282 282 282 282 281 280 279 278 277 276 274 273 272 272 272 271 269 268 266 266 266 266 267 268 268 268
285 285 284 284 284 285 284 284 284 285 285 283 282 281 280 279 279 280 281 282 282 282 281 280 280 279 278 277 276 275 274 273 272 271 269 268 268 268 268 267 268 268 268 268
285 287 287 286 285 284 283 283 283 285 286 286 285 284 282 281 281 281 281 281 282 281 280 280 280 280 278 277 277 276 275 275 273 272 270 268 269 269 269 269 269 270 269 269
286 288 288 288 287 285 284 283 283 285 286 287 287 286 285 283 282 282 281 281 283 283 281 280 280 280 279 278 278 276 275 275 275 273 271 269 269 270 270 270 271 271 270 270
287 287 288 288 287 286 287 285 284 285 286 286 286 285 286 285 285 284 283 283 283 284 283 282 281 280 280 279 278 277 275 274 274 273 271 270 270 271 271 271 271 271 270 269
287 288 288 289 289 288 287 286 285 285 285 285 285 286 286 286 286 286 286 285 285 285 284 283 282 281 281 279 278 277 275 274 274 272 271 270 270 271 272 273 272 272 271 270
Height
5703 5704 5704 5706 5707 5707 5707 5707 5707 5707 5706 5706 5705 5705 5705 5705 5705 5705 5705 5705 5705 5706 5707 5707 5708 5709 5710 5711 5712 5713 5715 5716 5717 5718 5719 5720 5720 5721 5721 5723 5724 5726 5729 5731
5696 5696 5698 5697 5698 5698 5698 5698 5698 5698 5697 5697 5697 5697 5696 5696 5696 5696 5695 5696 5696 5697 5697 5698 5698 5699 5700 5701 5702 5703 5704 5706 5707 5708 5709 5710 5710 5711 5712 5713 5714 5716 5718 5721
5688 5690 5689 5689 5689 5689 5689 5690 5690 5689 5689 5688 5687 5688 5688 5687 5687 5686 5686 5686 5686 5687 5687 5688 5688 5689 5689 5690 5691 5693 5694 5695 5696 5697 5699 5699 5700 5701 5702 5703 5704 5706 5708 5710
5680 5681 5681 5681 5681 5680 5681 5682 5681 5680 5680 5679 5679 5677 5680 5679 5678 5677 5677 5676 5676 5676 5676 5677 5678 5678 5679 5680 5681 5682 5683 5685 5686 5687 5688 5689 5690 5691 5691 5692 5694 5695 5697 5700
5672 5673 5672 5672 5673 5672 5672 5672 5672 5671 5670 5669 5669 5667 5670 5669 5668 5668 5668 5667 5667 5666 5666 5666 5667 5668 5668 5669 5670 5671 5672 5673 5674 5676 5677 5678 5679 5680 5680 5681 5683 5684 5686 5688
5664 5664 5664 5664 5664 5664 5663 5663 5662 5661 5660 5659 5660 5659 5659 5660 5659 5659 5658 5658 5657 5656 5656 5655 5656 5656 5657 5657 5658 5659 5660 5662 5663 5664 5665 5666 5667 5668 5669 5670 5672 5673 5675 5677
5656 5656 5655 5655 5655 5655 5655 5654 5653 5651 5649 5650 5651 5649 5650 5650 5650 5649 5649 5648 5647 5646 5645 5645 5644 5645 5645 5646 5646 5648 5649 5650 5651 5652 5653 5654 5655 5656 5657 5658 5659 5661 5663 5665
5648 5648 5648 5647 5647 5647 5646 5646 5646 5644 5642 5641 5641 5639 5642 5641 5640 5639 5638 5637 5636 5635 5635 5634 5633 5633 5634 5634 5635 5636 5637 5638 5639 5640 5641 5642 5643 5644 5645 5646 5647 5649 5650 5652
5640 5640 5640 5639 5639 5638 5638 5637 5638 5636 5633 5632 5631 5631 5632 5631 5630 5629 5628 5627 5626 5625 5624 5623 5622 5622 5622 5622 5623 5623 5624 5625 5626 5627 5628 5629 5630 5631 5632 5633 5634 5636 5637 5639
5632 5632 5631 5631 5630 5630 5630 5629 5629 5627 5624 5623 5623 5622 5623 5622 5621 5619 5618 5616 5615 5614 5613 5612 5611 5611 5610 5610 5610 5611 5611 5612 5613 5614 5615 5616 5617 5618 5619 5621 5622 5623 5624 5626
5624 5624 5623 5622 5622 5622 5622 5621 5620 5618 5617 5615 5614 5616 5614 5612 5611 5609 5608 5606 5605 5604 5602 5601 5600 5600 5599 5599 5599 5599 5599 5599 5600 5601 5602 5603 5604 5605 5607 5608 5609 5610 5612 5613
5616 5615 5614 5614 5614 5613 5612 5612 5611 5611 5609 5606 5605 5608 5605 5603 5600 5599 5598 5596 5594 5593 5591 5590 5589 5588 5588 5587 5587 5587 5587 5588 5588 5589 5590 5591 5592 5593 5594 5595 5597 5598 5599 5600
5608 5607 5606 5605 5607 5605 5603 5603 5602 5601 5600 5598 5597 5600 5596 5593 5591 5589 5587 5585 5584 5582 5580 5579 5578 5577 5577 5576 5576 5576 5576 5576 5577 5578 5578 5579 5580 5581 5582 5583 5584 5585 5586 5587
5599 5598 5599 5598 5596 5595 5594 5594 5593 5591 5590 5589 5589 5589 5587 5584 5581 5579 5577 5575 5574 5572 5570 5569 5568 5567 5566 5566 5565 5565 5565 5565 5565 5566 5567 5567 5568 5569 5570 5571 5571 5572 5573 5574
5591 5590 5589 5588 5587 5585 5585 5585 5584 5582 5581 5580 5580 5579 5577 5574 5572 5570 5568 5566 5564 5562 5560 5559 5558 5557 5556 5555 5555 5554 5554 5554 5554 5554 5555 5555 5556 5557 5557 5558 5559 5559 5560 5561
5582 5581 5580 5579 5578 5576 5575 5575 5574 5573 5571 5570 5569 5569 5567 5564 5562 5560 5557 5556 5554 5552 5550 5549 5548 5546 5545 5545 5544 5544 5543 5543 5543 5543 5543 5543 5544 5544 5545 5545 5546 5546 5547 5548
5574 5572 5571 5570 5569 5566 5566 5567 5565 5564 5562 5560 5558 5559 5556 5554 5552 5550 5547 5545 5543 5541 5540 5538 5537 5536 5535 5534 5533 5533 5532 5531 5531 5531 5531 5531 5532 5532 5532 5532 5533 5533 5534 5534
5565 5563 5560 5559 5559 5556 5560 5557 5555 5553 5552 5550 5548 5547 5545 5543 5541 5539 5537 5535 5533 5531 5529 5527 5526 5524 5523 5522 5522 5521 5521 5520 5519 5519 5519 5519 5519 5519 5519 5519 5520 5520 5520 5520
5556 5554 5551 5549 5547 5546 5548 5546 5543 5541 5541 5539 5537 5536 5534 5532 5530 5528 5525 5523 5521 5519 5518 5516 5514 5513 5511 5510 5510 5509 5508 5508 5507 5507 5506 5506 5507 5507 5507 5507 5507 5507 5506 5506
5547 5545 5543 5540 5537 5537 5539 5536 5532 5531 5530 5529 5526 5524 5522 5520 5519 5518 5515 5512 5510 5508 5506 5504 5503 5501 5500 5498 5497 5496 5496 5495 5494 5494 5493 5493 5493 5494 5494 5493 5493 5493 5493 5492
5538 5536 5534 5531 5527 5527 5527 5524 5522 5521 5520 5517 5515 5513 5511 5509 5507 5506 5503 5501 5499 5497 5495 5493 5491 5489 5488 5486 5485 5484 5483 5482 5481 5481 5480 5480 5480 5480 5480 5480 5480 5479 5479 5479
5529 5527 5524 5521 5519 5520 5517 5514 5512 5511 5508 5505 5503 5501 5499 5497 5496 5494 5492 5490 5488 5486 5484 5481 5480 5478 5476 5474 5473 5472 5471 5470 5468 5468 5467 5467 5467 5467 5467 5466 5466 5466 5465 5465
5520 5518 5515 5513 5512 5509 5506 5504 5501 5499 5497 5495 5492 5490 5488 5486 5484 5483 5481 5479 5477 5474 5472 5470 5468 5467 5465 5463 5461 5460 5458 5457 5456 5455 5454 5454 5454 5454 5453 5453 5452 5452 5452 5452
5511 5508 5505 5503 5501 5498 5496 5493 5491 5489 5486 5484 5482 5479 5477 5475 5473 5472 5470 5468 5465 5463 5461 5459 5457 5455 5453 5451 5449 5447 5446 5444 5443 5442 5441 5441 5441 5441 5440 5440 5439 5439 5438 5438
5501 5498 5495 5493 5491 5488 5486 5483 5480 5478 5475 5473 5471 5469 5466 5464 5462 5460 5458 5456 5454 5451 5449 5447 5445 5443 5440 5438 5436 5434 5433 5431 5430 5430 5429 5429 5429 5428 5428 5427 5426 5426 5425 5425
5492 5489 5486 5484 5481 5478 5476 5472 5470 5467 5465 5463 5460 5458 5456 5454 5451 5449 5447 5444 5442 5439 5437 5435 5432 5430 5428 5426 5424 5422 5420 5419 5418 5417 5417 5416 5416 5416 5415 5414 5413 5412 5412 5411